Terug naar catalogus

SL-8 DEB

ActiefLEO
NORAD 22198·DEBRIS·🇷🇺 Russia

Gelanceerd Feb 12, 1991 vanaf Plesetsk Cosmodrome

Loading…

Volgende Passages (komende 24 uur)

TLE

VerouderendSource: Space-Track

Epoch: Sep 11, 2026, 16:44 UTC

1 22198U 91009CS  26254.69780412  .00000031  00000-0  38106-3 0  9992
2 22198  73.9198 348.3959 0146925 303.9339 210.6332 12.30660193594870

Volg SL-8 DEB in realtime met AllMySat

Download on the App Store